Weather in Rajkot

India     22°17′09″N   70°47′51″E
temp.,
°C
wind,
m/s
gust,
m/s
humid.,
%
clouds,
%
prec.,
mm/h
press.,
hPa
HPBL,
m
14 august, sun
sun1423:30+25ssw71287100 0.1 1003765
02:30+25ssw8138876 0.1 1001791
05:30+25ssw7128953 0.1 1001739
08:30+25ssw71288100 0.1 1003740
11:30+26ssw71282100 0.1 1003937
14:30+30sw9106770 0.8 10011299
17:30+28sw8107437 1.8 10011100
20:30+26ssw7128535 0.3 1003749
15 august, mon
mon1523:30+25ssw71288100 0.3 1004746
02:30+25sw6128999 0.1 1002715
05:30+25sw6119099 0.1 1002618
08:30+26sw7108451 0.0 1003710
11:30+29sw6867100 0.3 10031165
14:30+29ssw7869100 0.3 10011131
17:30+27ssw6982100 1.3 1001685
20:30+26ssw6988100 0.2 1003548
16 august, tue
tue1623:30+25ssw5991100 0.3 1003483
02:30+25sw5892100 0.1 1001451
05:30+25ssw4793100 0.1 1001369
08:30+26ssw4589100 0.0 1002334
11:30+27ssw4583100 0.8 1001515
14:30+27w5584100 4.8 999629
17:30+24ssw81494100 12.8 1000676
20:30+24sw81394100 13.4 1002669
17 august, wed
wed1723:30+24sw81294100 14.9 1002649
02:30+25sw61192100 0.4 1001618
05:30+24ssw5118995 0.4 1002571
08:30+26ssw7118885 0.0 1003674
11:30+29sw91273100 0.1 10031145
14:30+30sw9116560 0.7 10011422
17:30+28sw8117329 1.0 10021125
20:30+26ssw7128524 0.0 1003768
18 august, thu
thu1823:30+25ssw7128739 0.0 1004714
02:30+25ssw6118962 0.1 1003743
05:30+25ssw7139045 0.1 1003697
08:30+26ssw8128344 0.0 1005859
11:30+28sw9127681 0.3 10051010
14:30+29sw9116987 0.9 10041191
17:30+29sw8107110 1.1 10041140
20:30+26sw610833 0.0 1005593